COOK73 UNOO-ZBLA

Flight info

Callsign COOK73
Flight time N/A
Altitude 37000
Route KOVEN6D KOVEN B234 SZ B926 KESED B151 RO A817 NERKA B478 KTN A91 AGINO A810 TELOK A345 KAGAK KAG01A
Aircraft C25C/M-SDE2E3FGHRWXY/LB1

Departure

Time 2026-04-26 20:33
Airport Omsk Central Airport (UNOO)

Arrival

Time N/A
Airport Hulunbuir Hailar Airport (ZBLA)
Time Latitude Longitude Altitude Speed Heading
2026-04-26 20:18 54.96280 73.31899 303 ft 0 kts 318°
2026-04-26 20:28 54.96287 73.31887 303 ft 4 kts 316°
2026-04-26 20:28 54.96300 73.31820 304 ft 7 kts 249°
2026-04-26 20:29 54.96299 73.31743 304 ft 7 kts 302°
2026-04-26 20:29 54.96337 73.31697 306 ft 7 kts 348°
2026-04-26 20:29 54.96387 73.31723 304 ft 8 kts 45°
2026-04-26 20:29 54.96410 73.31824 303 ft 10 kts 77°
2026-04-26 20:30 54.96426 73.31951 304 ft 12 kts 77°
2026-04-26 20:30 54.96445 73.32096 302 ft 13 kts 77°
2026-04-26 20:30 54.96467 73.32257 302 ft 14 kts 77°
2026-04-26 20:30 54.96490 73.32434 303 ft 16 kts 77°
2026-04-26 20:31 54.96516 73.32625 300 ft 17 kts 77°
2026-04-26 20:31 54.96544 73.32826 299 ft 17 kts 78°
2026-04-26 20:31 54.96578 73.33021 300 ft 17 kts 45°
2026-04-26 20:31 54.96687 73.33022 298 ft 16 kts 347°
2026-04-26 20:32 54.96789 73.32979 298 ft 15 kts 346°
2026-04-26 20:32 54.96889 73.32937 297 ft 15 kts 347°
2026-04-26 20:32 54.96959 73.32862 298 ft 7 kts 272°
2026-04-26 20:32 54.96958 73.32847 297 ft 0 kts 262°
2026-04-26 20:33 54.96953 73.32800 298 ft 20 kts 258°
2026-04-26 20:33 54.96856 73.32076 305 ft 103 kts 256°
2026-04-26 20:33 54.96626 73.30767 913 ft 116 kts 250°
2026-04-26 20:33 54.96422 73.29176 1428 ft 153 kts 266°
2026-04-26 20:34 54.96216 73.27173 2144 ft 179 kts 260°
2026-04-26 20:34 54.95923 73.25075 3229 ft 182 kts 260°
2026-04-26 20:34 54.95629 73.22919 4360 ft 185 kts 259°
2026-04-26 20:34 54.95332 73.20719 5477 ft 188 kts 259°
2026-04-26 20:35 54.95031 73.18493 6631 ft 190 kts 259°
2026-04-26 20:35 54.94727 73.16235 7752 ft 193 kts 259°
2026-04-26 20:35 54.94423 73.13953 8864 ft 195 kts 259°
2026-04-26 20:35 54.94107 73.11641 9972 ft 197 kts 258°
2026-04-26 20:36 54.93790 73.09309 10995 ft 199 kts 258°
2026-04-26 20:36 54.93475 73.06982 12026 ft 201 kts 258°
2026-04-26 20:36 54.93183 73.04590 13032 ft 203 kts 265°
2026-04-26 20:36 54.93354 73.02152 13999 ft 206 kts 284°
2026-04-26 20:37 54.94043 72.99929 14837 ft 215 kts 303°
2026-04-26 20:37 54.95237 72.98253 15662 ft 231 kts 324°
2026-04-26 20:37 54.96848 72.97538 16463 ft 252 kts 350°
2026-04-26 20:37 54.98631 72.98217 17255 ft 277 kts 17°
2026-04-26 20:38 55.00370 72.99782 18033 ft 285 kts 21°
2026-04-26 20:38 55.02102 73.01455 18749 ft 291 kts 21°
2026-04-26 20:38 55.03897 73.03148 19471 ft 296 kts 20°
2026-04-26 20:38 55.05730 73.04835 20217 ft 300 kts 20°
2026-04-26 20:39 55.07594 73.06551 20983 ft 306 kts 20°
2026-04-26 20:39 55.08838 73.07744 21489 ft 312 kts 25°
2026-04-26 20:39 55.10803 73.11639 22503 ft 331 kts 64°
2026-04-26 20:39 55.11429 73.15528 23258 ft 335 kts 81°
2026-04-26 20:40 55.11859 73.19558 23928 ft 339 kts 83°
2026-04-26 20:40 55.12249 73.23645 24572 ft 342 kts 83°
2026-04-26 20:40 55.12673 73.27754 25189 ft 345 kts 82°
2026-04-26 20:40 55.13121 73.31880 25807 ft 347 kts 82°
2026-04-26 20:41 55.13560 73.36045 26424 ft 350 kts 83°
2026-04-26 20:41 55.13994 73.40242 27021 ft 352 kts 83°
2026-04-26 20:41 55.14371 73.44421 27601 ft 352 kts 91°
2026-04-26 20:41 55.14054 73.48573 28202 ft 342 kts 112°
2026-04-26 20:42 55.13415 73.52584 28851 ft 342 kts 113°
2026-04-26 20:42 55.12740 73.56544 29578 ft 339 kts 114°
2026-04-26 20:42 55.12067 73.60494 30242 ft 338 kts 114°
2026-04-26 20:42 55.11413 73.64441 30782 ft 338 kts 113°
2026-04-26 20:43 55.10761 73.68376 31306 ft 337 kts 113°
2026-04-26 20:43 55.10103 73.72306 31831 ft 337 kts 113°
2026-04-26 20:43 55.09442 73.76229 32345 ft 337 kts 113°
2026-04-26 20:43 55.08781 73.80148 32856 ft 336 kts 113°
2026-04-26 20:44 55.08123 73.84058 33370 ft 336 kts 113°
2026-04-26 20:44 55.07463 73.87968 33873 ft 336 kts 113°
2026-04-26 20:44 55.06801 73.91869 34315 ft 335 kts 113°
2026-04-26 20:44 55.06139 73.95766 34738 ft 334 kts 113°
2026-04-26 20:45 55.05479 73.99644 35161 ft 333 kts 113°
2026-04-26 20:45 55.04840 74.03532 35563 ft 335 kts 109°
2026-04-26 20:45 55.04516 74.07581 35970 ft 340 kts 98°
2026-04-26 20:45 55.04581 74.11716 36359 ft 343 kts 86°
2026-04-26 20:46 55.04948 74.15836 36739 ft 344 kts 84°
2026-04-26 20:46 55.05320 74.19925 36936 ft 350 kts 84°
2026-04-26 20:46 55.05700 74.24187 36988 ft 361 kts 84°
2026-04-26 20:46 55.06092 74.28576 37001 ft 372 kts 84°
2026-04-26 20:47 55.06502 74.33113 37000 ft 384 kts 84°
2026-04-26 20:47 55.07346 74.42574 37001 ft 405 kts 84°
2026-04-26 20:48 55.08225 74.52533 36999 ft 424 kts 84°
2026-04-26 20:48 55.09133 74.62911 37000 ft 440 kts 84°
2026-04-26 20:49 55.10059 74.73622 36997 ft 452 kts 84°
2026-04-26 20:49 55.11003 74.84623 36992 ft 463 kts 84°
2026-04-26 20:50 55.11952 74.95831 37001 ft 467 kts 84°
2026-04-26 20:50 55.12893 75.07076 36990 ft 468 kts 84°
2026-04-26 20:51 55.13819 75.18278 36994 ft 469 kts 84°
2026-04-26 20:51 55.14742 75.29570 36992 ft 469 kts 84°
2026-04-26 20:52 55.15656 75.40887 36990 ft 470 kts 84°
2026-04-26 20:52 55.16562 75.52211 36991 ft 470 kts 85°
2026-04-26 20:53 55.17455 75.63549 36988 ft 471 kts 85°
2026-04-26 20:53 55.18351 75.74888 36988 ft 471 kts 85°
2026-04-26 20:54 55.19249 75.86243 36983 ft 471 kts 85°
2026-04-26 20:54 55.20127 75.97607 36979 ft 471 kts 85°
2026-04-26 20:55 55.21002 76.08978 36979 ft 471 kts 85°
2026-04-26 20:55 55.21862 76.20357 36973 ft 471 kts 85°
2026-04-26 20:56 55.22716 76.31749 36969 ft 471 kts 85°
2026-04-26 20:56 55.23414 76.41214 36984 ft 471 kts 85°
2026-04-26 20:57 55.24382 76.54464 36973 ft 471 kts 86°
2026-04-26 20:57 55.25199 76.65862 36965 ft 472 kts 86°
2026-04-26 20:58 55.25879 76.75424 36961 ft 471 kts 86°
2026-04-26 20:58 55.26667 76.86760 36959 ft 471 kts 86°
2026-04-26 20:59 55.27448 76.98181 36963 ft 471 kts 86°
2026-04-26 20:59 55.28218 77.09590 36957 ft 471 kts 86°
2026-04-26 21:00 55.28977 77.21002 36956 ft 471 kts 86°
2026-04-26 21:00 55.29726 77.32423 36954 ft 471 kts 87°
2026-04-26 21:01 55.30464 77.43840 36957 ft 471 kts 87°
2026-04-26 21:01 55.31192 77.55266 36954 ft 471 kts 87°
2026-04-26 21:02 55.31907 77.66686 36954 ft 470 kts 87°
2026-04-26 21:02 55.32613 77.78109 36955 ft 470 kts 87°
2026-04-26 21:03 55.33308 77.89537 36948 ft 470 kts 88°
2026-04-26 21:03 55.33991 78.00949 36951 ft 470 kts 88°
2026-04-26 21:04 55.34664 78.12377 36960 ft 470 kts 88°
2026-04-26 21:04 55.35325 78.23804 36951 ft 470 kts 88°
2026-04-26 21:05 55.35499 78.35114 36954 ft 463 kts 99°
2026-04-26 21:05 55.35012 78.46420 36957 ft 463 kts 99°
2026-04-26 21:06 55.34529 78.57702 36951 ft 463 kts 99°
2026-04-26 21:06 55.34027 78.68985 36953 ft 463 kts 99°
2026-04-26 21:07 55.33521 78.80267 36953 ft 463 kts 99°
2026-04-26 21:07 55.33000 78.91548 36955 ft 463 kts 100°
2026-04-26 21:08 55.32472 79.02805 36954 ft 463 kts 100°
2026-04-26 21:08 55.31936 79.13985 36954 ft 462 kts 100°
2026-04-26 21:09 55.31386 79.25236 36959 ft 462 kts 100°
2026-04-26 21:09 55.30828 79.36484 36956 ft 462 kts 100°
2026-04-26 21:10 55.30256 79.47729 36960 ft 462 kts 101°
2026-04-26 21:10 55.29677 79.58973 36958 ft 462 kts 101°
2026-04-26 21:11 55.29085 79.70204 36956 ft 462 kts 101°
2026-04-26 21:11 55.28484 79.81440 36958 ft 462 kts 101°
2026-04-26 21:12 55.27872 79.92665 36957 ft 462 kts 101°
2026-04-26 21:12 55.27251 80.03900 36954 ft 463 kts 101°
2026-04-26 21:13 55.26619 80.15124 36959 ft 462 kts 101°
2026-04-26 21:13 55.25981 80.26270 36961 ft 462 kts 101°
2026-04-26 21:14 55.25327 80.37486 36962 ft 462 kts 101°
2026-04-26 21:14 55.24666 80.48687 36958 ft 462 kts 101°
2026-04-26 21:15 55.23993 80.59897 36962 ft 462 kts 101°
2026-04-26 21:15 55.23311 80.71083 36961 ft 461 kts 102°
2026-04-26 21:16 55.22618 80.82266 36959 ft 461 kts 102°
2026-04-26 21:16 55.21916 80.93431 36955 ft 461 kts 102°
2026-04-26 21:17 55.21205 81.04585 36959 ft 461 kts 102°
2026-04-26 21:17 55.20483 81.15728 36957 ft 460 kts 102°
2026-04-26 21:18 55.19751 81.26863 36956 ft 460 kts 102°
2026-04-26 21:18 55.19014 81.37911 36956 ft 460 kts 102°
2026-04-26 21:19 55.18263 81.49013 36954 ft 459 kts 102°
2026-04-26 21:19 55.17503 81.60133 36953 ft 459 kts 102°
2026-04-26 21:20 55.16733 81.71220 36966 ft 458 kts 102°
2026-04-26 21:20 55.15954 81.82271 36957 ft 458 kts 102°
2026-04-26 21:21 55.15166 81.93320 36948 ft 458 kts 103°
2026-04-26 21:21 55.14370 82.04348 36951 ft 457 kts 103°
2026-04-26 21:22 55.13569 82.15296 36945 ft 457 kts 103°
2026-04-26 21:22 55.12753 82.26297 36952 ft 456 kts 103°
2026-04-26 21:23 55.11502 82.42770 36956 ft 455 kts 103°
2026-04-26 21:23 55.10628 82.53723 36959 ft 455 kts 103°
2026-04-26 21:24 55.09762 82.64662 36959 ft 455 kts 103°
2026-04-26 21:24 55.08879 82.75584 36957 ft 454 kts 103°
2026-04-26 21:25 55.08044 82.86513 36949 ft 457 kts 99°
2026-04-26 21:25 55.08347 82.97672 36941 ft 464 kts 87°
2026-04-26 21:26 55.09132 83.08859 36930 ft 464 kts 88°
2026-04-26 21:26 55.09911 83.20031 36919 ft 463 kts 88°
2026-04-26 21:27 55.10675 83.31128 36906 ft 463 kts 88°
2026-04-26 21:27 55.11430 83.42286 36913 ft 462 kts 88°
2026-04-26 21:28 55.12175 83.53428 36903 ft 461 kts 88°
2026-04-26 21:28 55.12909 83.64553 36901 ft 460 kts 88°
2026-04-26 21:29 55.13630 83.75661 36897 ft 459 kts 88°
2026-04-26 21:29 55.14343 83.86763 36892 ft 460 kts 88°
2026-04-26 21:30 55.15044 83.97882 36884 ft 460 kts 88°
2026-04-26 21:30 55.15734 84.08986 36885 ft 459 kts 89°
2026-04-26 21:31 55.16411 84.20012 36880 ft 458 kts 89°
2026-04-26 21:31 55.17077 84.31076 36879 ft 457 kts 89°
2026-04-26 21:32 55.17733 84.42136 36873 ft 456 kts 89°
2026-04-26 21:32 55.18380 84.53179 36857 ft 456 kts 89°
2026-04-26 21:33 55.19211 84.64193 36855 ft 457 kts 86°
2026-04-26 21:33 55.19968 84.75219 36857 ft 455 kts 89°
2026-04-26 21:34 55.20590 84.86249 36857 ft 455 kts 89°
2026-04-26 21:34 55.21224 84.97266 36853 ft 454 kts 89°
2026-04-26 21:35 55.21828 85.08215 36856 ft 454 kts 89°
2026-04-26 21:35 55.22435 85.19236 36854 ft 454 kts 89°
2026-04-26 21:36 55.22926 85.28384 36855 ft 454 kts 89°
2026-04-26 21:36 55.23609 85.41254 36855 ft 454 kts 89°
2026-04-26 21:37 55.24182 85.52268 36858 ft 453 kts 89°
2026-04-26 21:37 55.24745 85.63274 36863 ft 453 kts 89°
2026-04-26 21:38 55.25296 85.74280 36870 ft 453 kts 89°